Find Starlink 30791

NORAD ID: 58177 Int'l Des: 2023-167 Owner: SPXS Country: US Constellation: starlink operational
LEOCIRCULAR

現在のビュー

3D地球を読み込み中...

About Starlink 30791

Starlink 30791 (NORAD 58177) is a starlink constellation satellite (v2 mini) launched Oct 30, 2023 by SPXS of US. It operates in LEO, CIRCULAR orbit with a mass of 730.00 kg.

Starlink 30791について

説明を読み込み中...

次回通過

Passes for default location (London). Set your location on the main map for personalized predictions.

高度履歴

Loading altitude history...

軌道要素

1 58177U 23167C 26169.61884584 .00000488 00000-0 27250-4 0 9995
2 58177 43.0006 293.1681 0001143 258.9594 101.1129 15.27578239146425
Epoch: Jun 18, 2026 • Age: 25 hours

現在のステータス

高度 484.0 km
速度 7.62 km/s
衛星直下点 -7.56°S, 132.55°E
打ち上げ日 Oct 30, 2023
運用期間 2.6 years
タイプ internet

技術仕様

分類 Payload
質量 730.00 kg
乾燥質量 700.00 kg
総質量 730.00 kg
長さ 0.30 m
直径 4.10 m
スパン 29.00 m
形状 Box + pan
製造者 SPXS
バスタイプ Starlink V2M
フェーズステータス In Orbit
所有者/国 SPXS/US

Most Searched